SCP
0 0 0 0 0 0 0 0 0 0 0 0 0 0 0 0 0 0 0 1 1 2 2 2 1 1 1 2 2 2 2 2 1 1 1 1 1 1 1 1 1 1 1 1 1 1 1 1 1
0 0 0 0 0 0 0 0 0 0 0 0 0 0 0 0 0 0 0 1 1 2 2 2 1 1 1 2 2 2 2 2 1 1 1 1 1 1 1 1 1 1 1 1 1 1 1 1 1
0 0 0 0 0 0 0 0 0 0 0 0 0 0 0 0 0 0 1 1 1 2 2 2 2 2 2 2 2 2 2 2 1 1 1 1 1 1 1 1 1 1 1 0 0 0 0 0 0
0 0 0 0 0 0 0 0 0 0 0 0 0 0 0 0 0 1 1 1 2 2 2 2 2 2 2 2 2 2 2 2 2 1 1 1 1 1 1 1 1 1 1 1 0 0 0 0 0
0 0 0 0 0 0 0 0 0 0 0 0 0 0 0 0 1 1 1 1 2 2 2 2 3 3 2 2 2 2 2 2 2 1 1 1 1 1 1 1 1 1 1 1 0 0 0 0 0
0 0 0 0 0 0 0 0 0 0 0 0 0 0 0 1 1 1 2 2 2 2 2 3 3 3 2 2 2 2 2 2 2 1 1 1 1 1 1 1 1 1 1 0 0 0 0 0 0
0 0 0 0 0 0 0 0 0 0 0 0 0 0 0 1 1 2 2 2 2 2 2 2 3 3 3 2 2 2 2 2 2 2 1 1 1 1 1 1 1 1 1 0 0 0 0 0 0
0 0 0 0 0 0 0 0 0 0 0 0 0 0 0 1 2 2 2 2 2 2 2 2 3 3 3 2 2 2 2 2 2 2 1 1 1 1 1 1 1 1 1 1 1 1 0 0 0
0 0 0 0 0 0 0 0 0 0 0 0 0 0 1 1 2 2 2 2 2 2 2 2 3 3 3 3 2 2 1 1 2 2 1 1 1 1 1 1 1 1 1 1 1 0 0 0 0
0 0 0 0 0 0 0 0 0 0 0 0 1 1 1 1 2 2 2 2 2 2 2 2 2 3 3 3 2 2 2 1 1 2 1 1 1 1 1 1 1 1 1 0 0 0 0 0 0
0 0 0 0 0 0 0 0 0 0 0 0 1 1 1 2 2 2 1 1 1 2 2 2 2 3 3 3 3 2 2 2 2 2 1 1 1 1 1 1 1 1 0 0 0 0 0 0 0
0 0 0 0 0 0 0 0 0 0 0 0 0 1 2 2 2 2 1 1 1 1 2 2 2 3 3 3 3 3 2 2 2 1 1 1 1 1 1 1 1 0 0 0 0 0 0 0 0
0 0 0 0 0 0 0 0 0 0 0 0 1 1 2 2 2 2 2 2 1 1 1 1 2 2 3 3 3 3 2 2 2 1 1 1 1 1 1 1 1 0 0 0 0 0 0 0 0
0 0 0 0 0 0 0 0 0 0 0 0 1 2 2 2 2 2 2 2 1 1 1 1 1 2 4 3 3 3 3 2 2 1 1 1 0 0 0 1 1 1 0 0 0 0 0 0 0
0 0 0 0 0 0 0 0 0 0 0 0 1 2 2 2 2 2 1 1 1 1 1 1 1 2 4 3 2 2 2 2 2 1 1 0 0 0 0 0 1 1 0 0 0 0 0 0 0
0 0 0 0 0 0 0 0 0 0 0 0 1 1 2 2 2 2 1 1 1 1 1 1 1 2 2 2 2 2 2 2 1 1 0 0 0 0 0 0 0 1 1 0 0 0 0 0 0
0 0 0 0 0 0 0 0 0 0 0 0 0 1 1 2 2 2 1 1 2 1 1 1 1 1 1 1 1 1 1 1 1 1 0 0 0 0 0 0 0 1 1 1 0 0 0 0 0
0 0 0 0 0 0 0 0 0 0 0 0 0 0 0 1 1 1 1 2 2 1 1 1 1 1 2 2 1 1 1 1 1 0 0 0 0 0 0 0 0 0 1 1 0 0 0 0 0
0 0 0 0 0 0 0 0 0 0 0 0 0 0 0 0 0 1 1 1 2 2 1 1 1 2 2 2 2 2 1 1 1 0 0 0 0 0 0 0 0 0 0 0 0 0 0 0 0
0 0 0 0 0 0 0 0 0 0 0 0 0 0 0 0 0 0 0 1 1 1 1 1 1 2 2 3 2 2 1 1 1 0 0 0 0 0 0 0 0 0 0 0 0 0 0 0 0
0 0 0 0 0 0 0 0 0 0 0 0 0 0 0 0 0 0 0 0 1 1 1 1 1 2 2 3 2 1 1 1 1 1 0 0 0 0 0 0 0 0 0 0 1 0 0 0 0
0 0 0 0 0 0 0 0 0 0 0 0 0 0 0 0 0 0 0 0 0 1 1 1 1 2 2 3 2 2 1 0 0 1 0 0 0 0 0 0 0 0 0 0 1 1 1 0 0
0 0 0 0 0 0 0 0 0 0 0 0 0 0 0 0 0 0 0 0 0 1 1 1 1 1 2 2 2 2 1 0 0 0 0 0 0 0 0 0 0 0 0 0 0 1 1 1 0
0 0 0 0 0 0 0 0 0 0 0 0 0 0 0 0 0 0 0 0 0 0 0 1 1 1 1 2 2 2 1 0 0 0 0 0 0 0 0 0 0 0 0 0 0 1 1 1 1
0 0 0 0 0 0 0 0 0 0 0 0 0 0 0 0 0 0 0 0 0 0 0 0 0 0 1 1 1 1 1 0 0 0 0 0 0 0 0 0 0 0 0 0 0 0 1 1 1
0 0 0 0 0 0 0 0 0 0 0 0 0 0 0 0 0 0 0 0 0 0 0 0 0 0 1 1 1 1 1 0 0 0 0 0 0 0 0 0 0 0 0 0 0 0 0 0 1
0 0 0 0 0 0 0 0 0 0 0 0 0 0 0 0 0 0 0 0 0 0 0 0 0 0 0 1 1 1 1 0 0 0 0 0 0 0 0 0 0 0 0 0 0 0 0 0 0
0 0 0 0 0 0 0 0 0 0 0 0 0 0 0 0 0 0 0 0 0 0 0 0 0 0 0 0 1 1 1 0 0 0 0 0 0 0 0 0 0 0 0 0 0 0 0 0 0
0 0 0 0 0 0 0 0 0 0 0 0 0 0 0 0 0 0 0 0 0 0 0 0 0 0 0 0 0 0 0 0 0 0 0 0 0 0 0 0 0 0 0 0 0 0 0 0 0
0 0 0 0 0 0 0 0 0 0 0 0 0 0 0 0 0 0 0 0 0 0 0 0 0 0 0 0 0 0 0 0 0 0 0 0 0 0 0 0 0 0 0 0 0 0 0 0 0
Wind_Speed
2 3 3 4 6 3 4 6 3 2 3 2 2 4 6 7 6 4 1 3 6 7 6 9 11 11 11 12 12 12 11 12 12 12 11 11 11 11 11 10 10 10 10 10 10 9 8 8 8
2 2 4 5 5 2 6 5 5 5 4 3 2 3 3 1 0 3 3 3 7 7 6 7 11 12 11 11 12 11 11 11 11 11 11 11 11 10 10 10 10 10 10 9 9 9 8 8 8
2 3 4 4 4 7 6 5 6 2 3 3 2 2 2 2 3 3 3 7 7 7 6 7 11 12 12 11 11 11 11 11 11 11 10 10 10 10 10 10 9 9 9 9 9 8 8 8 8
3 4 4 3 6 6 5 2 3 3 2 2 4 2 0 1 3 3 6 8 9 6 5 7 11 11 11 11 11 11 10 10 10 10 10 10 10 9 9 9 9 9 8 8 8 8 8 8 8
4 4 3 2 6 5 5 3 3 3 3 2 4 3 0 3 2 7 8 8 9 6 5 6 11 11 11 11 11 10 10 10 10 10 10 10 10 9 9 9 9 8 8 8 8 7 7 7 8
4 4 3 5 6 5 4 4 3 2 2 3 5 4 1 1 5 7 7 7 7 7 5 5 10 10 10 10 10 10 10 10 10 10 10 10 9 9 9 9 8 8 8 8 8 8 8 8 8
4 4 5 4 4 5 4 4 5 5 4 5 6 5 1 2 4 6 7 6 6 6 6 5 5 7 9 10 10 10 10 10 10 9 9 9 9 9 9 8 8 8 8 8 8 8 8 8 8
4 4 3 4 4 5 2 3 3 6 4 3 6 7 6 6 6 7 7 6 5 5 5 5 5 5 5 6 9 10 10 10 10 10 10 10 9 8 9 8 8 8 9 8 8 8 8 9 9
3 3 5 6 7 5 2 2 1 2 5 2 2 3 3 10 10 9 7 5 4 4 4 5 5 5 5 5 7 8 9 10 9 8 10 9 5 4 5 7 9 9 9 9 9 9 9 9 8
4 6 8 5 4 2 1 2 3 3 3 2 1 1 7 11 12 12 11 9 7 6 4 4 5 5 5 4 4 4 4 5 5 4 5 4 4 4 5 8 9 9 9 9 9 10 9 7 3
6 7 4 3 2 1 1 1 2 6 4 6 7 8 11 12 12 12 11 10 8 7 5 4 5 5 5 4 4 3 3 3 4 4 4 4 3 3 4 3 4 5 6 5 6 6 4 3 3
5 5 3 2 1 1 1 1 1 4 5 3 6 11 13 15 15 15 13 10 8 7 6 5 5 5 5 4 3 3 2 2 2 3 3 3 2 3 2 2 2 3 2 3 3 2 3 4 4
5 4 3 2 2 1 0 1 2 4 3 1 6 10 13 14 12 9 8 7 7 7 7 6 5 5 5 4 3 3 3 3 2 2 2 3 3 2 2 2 2 2 2 2 2 3 3 3 4
5 3 2 3 3 2 2 3 2 6 2 3 7 10 11 12 11 8 8 9 9 9 8 6 6 5 5 4 3 3 3 3 2 2 2 3 2 2 2 2 2 2 2 2 2 2 2 2 2
2 2 4 3 3 3 1 6 7 5 4 5 6 7 9 9 9 11 11 11 10 9 8 7 7 5 5 5 4 3 3 3 2 2 2 2 2 2 2 2 1 1 1 2 2 2 2 2 3
3 3 5 4 5 4 5 11 6 3 6 7 7 6 7 8 9 9 9 8 8 8 8 8 7 7 6 5 4 3 3 3 2 2 2 2 2 2 2 2 1 1 1 2 2 2 2 2 3
3 6 7 4 4 4 7 9 5 3 6 7 7 7 8 7 8 8 8 9 9 9 9 8 7 7 6 5 4 3 3 2 2 2 1 2 2 2 2 1 1 1 1 2 2 2 1 2 3
7 6 5 6 3 5 7 8 6 3 5 7 6 6 7 9 11 8 8 8 8 8 8 8 7 6 6 5 4 3 2 2 1 1 1 2 2 2 2 1 1 1 2 2 2 2 2 1 2
5 5 5 5 2 4 7 9 9 5 5 6 7 7 9 10 7 6 7 7 8 8 9 9 8 7 6 4 4 3 2 1 1 1 1 1 1 2 2 1 1 1 1 1 1 1 2 2 2
4 4 4 3 1 3 4 9 8 7 7 8 9 10 10 8 5 6 7 8 9 10 10 10 9 8 8 5 4 3 3 2 1 1 1 1 1 1 1 2 1 1 1 1 1 1 1 2 3
6 7 6 3 1 2 2 8 6 5 4 5 7 8 8 10 9 8 8 9 9 10 11 11 10 9 8 6 4 4 3 2 1 0 0 1 1 1 1 1 1 1 1 0 0 0 1 1 2
8 6 5 4 2 3 2 6 7 4 5 6 7 7 8 7 7 7 8 9 10 11 10 10 10 9 8 8 7 7 5 3 3 2 1 1 1 1 1 1 1 1 1 1 1 0 0 1 1
5 4 4 3 3 2 2 4 9 2 5 8 8 8 7 7 7 8 9 10 9 9 9 9 9 8 8 8 8 7 4 3 2 2 2 1 1 1 1 1 1 1 1 1 1 0 0 1 1
5 4 3 2 2 5 7 7 9 5 8 6 6 6 6 5 5 6 6 6 6 6 7 7 9 8 8 8 7 7 7 5 4 2 2 1 0 0 1 1 1 1 1 1 1 1 1 1 1
6 6 2 1 3 8 4 6 11 7 6 6 6 6 4 4 4 4 5 7 7 8 8 8 9 8 8 8 8 7 7 7 6 4 3 2 1 1 2 1 1 1 1 1 1 1 1 1 1
7 8 7 7 7 4 4 9 9 5 3 3 3 3 2 2 3 4 6 7 8 8 9 9 9 8 8 8 7 6 6 4 4 4 3 3 2 2 2 1 1 1 1 1 1 1 1 1 2
6 5 4 4 2 2 5 6 8 2 2 2 1 1 1 1 2 3 4 5 6 8 8 9 10 8 8 7 6 5 5 4 4 3 3 2 2 1 1 1 1 1 1 1 1 1 1 1 2
4 6 4 5 5 4 4 5 5 3 2 2 2 2 2 1 0 1 2 4 4 5 6 7 8 8 7 7 6 5 5 4 4 3 3 3 2 1 1 1 1 1 1 1 1 1 2 2 2
2 3 3 4 4 4 3 6 3 4 2 1 1 1 1 1 1 1 1 2 3 4 5 6 6 5 5 5 5 5 4 4 4 3 3 3 2 2 2 1 1 1 1 1 1 2 2 2 3
2 4 5 5 4 3 3 6 2 1 1 0 1 2 2 2 2 2 2 3 3 4 4 5 5 5 5 5 4 4 4 4 3 3 2 2 2 2 2 1 1 1 2 2 2 2 2 2 3
Wind_Direction
58 74 73 61 62 61 232 235 221 218 210 206 153 147 159 162 165 187 125 141 129 135 142 139 134 130 125 120 116 112 108 105 101 98 95 93 90 86 82 78 75 72 70 68 67 66 66 64 61
113 88 60 68 106 187 251 233 216 213 181 136 86 94 112 161 108 116 144 147 130 129 131 135 134 130 128 124 121 117 112 108 104 101 98 94 91 87 82 77 74 71 68 66 63 63 63 62 59
114 67 91 96 155 193 227 224 217 209 170 146 104 72 139 169 157 163 163 136 118 116 119 135 134 131 128 125 123 119 115 111 107 104 99 96 92 87 82 78 75 71 68 66 62 60 59 58 55
99 62 64 113 217 222 226 238 180 152 156 133 133 113 20 1 174 162 132 126 117 113 113 129 129 129 128 126 123 119 116 114 109 105 100 97 92 86 81 76 73 71 68 64 60 57 55 52 49
70 93 111 224 237 244 241 241 176 164 174 155 141 143 191 348 97 122 127 127 126 119 111 126 127 126 123 120 119 118 116 112 109 104 100 96 91 87 81 76 72 69 66 61 57 53 49 47 44
79 92 146 221 239 257 254 215 167 175 166 150 146 141 195 23 128 133 128 125 124 120 107 114 126 124 121 118 114 112 113 111 107 103 98 93 90 88 84 78 73 69 64 60 54 51 46 42 38
129 138 189 208 230 251 242 179 171 173 183 195 163 138 184 175 156 132 121 116 110 108 103 96 103 112 116 115 113 110 106 106 105 101 95 90 86 84 80 75 71 65 62 57 51 47 43 40 37
145 139 189 209 209 239 221 169 180 170 188 157 147 153 193 188 147 120 108 105 104 99 102 102 97 94 96 103 108 105 102 98 96 93 88 82 77 76 74 68 66 63 58 53 49 45 43 40 38
114 133 208 208 197 230 198 162 122 110 122 134 185 195 185 138 134 127 119 116 120 113 104 109 106 99 97 96 98 96 95 91 86 84 85 78 63 58 60 60 62 60 57 53 49 45 42 40 37
145 199 219 212 201 217 201 174 164 123 126 156 135 69 121 139 150 154 159 161 160 154 139 124 117 111 103 94 87 78 76 78 75 76 77 74 66 60 60 56 58 57 54 50 47 43 39 34 24
179 208 220 241 238 232 210 184 167 143 196 204 189 167 150 156 163 169 171 171 169 161 150 139 130 120 111 105 99 85 81 77 74 78 79 76 68 60 53 48 41 38 41 37 33 31 25 25 21
194 229 219 244 237 217 213 176 172 195 220 212 178 157 160 169 177 180 177 173 164 159 160 151 140 127 118 113 108 104 97 90 85 83 87 86 78 67 59 56 44 38 33 34 29 27 21 22 20
213 235 222 243 279 271 262 250 239 253 259 130 131 150 169 177 183 182 171 164 161 167 167 161 148 139 131 121 118 112 110 107 105 93 85 93 93 84 72 61 53 42 36 38 30 27 23 20 14
207 215 248 247 242 253 234 272 247 252 188 146 157 172 182 185 181 170 169 173 178 178 175 164 154 147 138 134 132 129 122 116 108 101 94 94 98 96 84 71 56 40 33 34 38 26 23 13 9
152 191 275 249 210 217 163 276 236 230 162 178 190 189 190 196 186 186 185 183 182 179 173 169 161 150 145 141 139 131 128 123 118 113 103 99 100 103 95 82 63 34 27 35 37 26 25 20 12
132 175 236 244 194 195 169 251 254 199 176 199 206 203 200 207 202 199 190 184 179 172 171 172 165 155 152 145 139 131 128 125 124 120 112 107 106 108 97 82 55 30 40 41 38 28 22 11 1
178 205 219 245 203 175 186 241 256 189 186 210 214 212 209 212 213 206 194 187 181 177 172 171 166 161 155 144 132 126 126 125 127 122 118 117 111 110 106 95 48 51 55 42 29 27 25 1 349
197 196 203 212 213 177 208 241 260 228 202 220 223 221 217 216 218 205 194 186 181 177 172 170 164 159 145 130 115 104 103 110 115 129 135 125 117 114 108 100 65 60 63 37 29 20 12 356 329
168 181 215 227 211 188 227 248 257 249 229 234 234 226 225 226 222 197 190 181 174 174 174 174 167 162 151 145 145 144 157 155 146 148 140 135 125 120 113 99 76 65 76 55 33 29 18 5 348
189 204 227 265 229 204 246 262 259 242 229 223 225 226 225 224 212 196 188 183 182 182 181 178 175 169 168 165 155 143 138 148 160 156 142 147 139 135 122 123 120 98 82 50 33 45 37 0 11
217 206 208 217 341 336 309 287 257 255 234 236 232 228 222 214 212 202 193 192 185 185 184 181 179 173 169 152 129 106 89 79 91 154 177 194 171 157 137 144 145 139 137 167 293 94 88 4 357
226 207 189 188 177 261 184 274 273 250 255 244 240 232 225 219 212 201 193 191 190 191 183 178 175 170 165 156 155 154 160 171 190 183 192 207 178 163 150 152 155 157 163 196 247 32 168 144 329
203 166 170 179 179 254 223 238 276 251 251 248 239 233 229 218 206 202 197 193 189 182 177 175 168 167 164 164 166 163 161 162 150 142 154 169 186 171 165 160 157 171 196 221 245 284 238 187 212
151 107 83 73 105 244 215 203 268 226 223 243 241 236 231 218 207 206 198 179 174 170 167 166 163 167 167 166 167 169 165 157 149 156 164 178 213 235 206 170 178 202 219 229 237 238 233 235 237
151 134 136 181 212 240 196 207 248 242 228 230 244 246 243 220 204 195 183 175 172 170 169 167 166 169 169 169 172 174 170 167 171 176 179 181 198 236 238 230 228 239 239 238 235 246 257 243 248
186 167 172 186 205 241 186 227 251 258 263 256 254 244 247 228 204 197 189 179 175 174 171 168 170 170 171 173 177 174 168 169 177 180 180 192 206 218 221 228 236 252 252 256 248 258 270 266 262
162 194 175 140 138 210 239 269 295 274 324 337 344 14 302 256 222 193 176 169 169 171 174 174 171 167 171 174 170 168 168 171 176 176 175 186 201 208 203 224 237 257 256 243 238 259 283 280 270
167 154 140 158 170 221 254 251 245 255 270 326 355 342 322 348 40 133 154 163 165 168 167 165 166 168 168 168 169 170 174 176 172 167 179 189 197 191 189 214 235 251 257 253 252 274 277 282 286
130 158 166 164 182 175 220 257 239 223 231 240 299 328 348 23 71 112 122 139 140 139 147 155 156 152 155 161 162 159 165 164 163 172 186 187 187 178 185 202 221 247 257 261 261 272 276 286 295
203 189 169 175 208 188 191 263 315 229 278 118 20 17 27 41 47 69 97 103 116 134 143 149 152 154 159 156 150 151 150 150 156 168 173 168 171 177 181 184 208 251 262 257 248 268 275 278 286